EW0641 Weather Reports


Display with metric or nautical units.
time (UTC)temp
F
wind
direction
speed
MPH
gust
MPH
rain 1hr
in
rain 24hr
in
rain mn
in
humidity
%
barometer
mb
20260505113050 60 284 0.0 0.0 0.00 0.07 0.02 82 1002.1
20260505111548 60 281 0.0 0.0 0.00 0.07 0.02 81 1001.5
20260505101541 61 268 0.0 0.0 0.00 0.07 0.02 80 1000.3
20260505100042 61 294 0.0 0.0 0.00 0.07 0.02 80 1000.5
20260505094542 61 279 0.0 0.0 0.00 0.07 0.02 80 1000.7
20260505093043 60 262 0.0 0.0 0.00 0.07 0.02 81 1000.6
20260505091540 61 237 0.0 0.0 0.00 0.07 0.02 81 1000.5
20260505090045 61 242 0.0 0.0 0.00 0.07 0.02 81 1000.4
20260505084539 61 248 0.0 0.0 0.00 0.07 0.02 80 1000.3
20260505083039 61 279 0.0 0.0 0.00 0.07 0.02 81 1000.1
20260505081541 61 242 0.0 0.0 0.00 0.07 0.02 81 999.8
20260505080040 61 235 0.0 0.0 0.00 0.07 0.02 80 999.6
20260505074537 61 229 0.0 0.0 0.00 0.07 0.02 81 998.9
20260505073054 61 238 0.0 0.0 0.00 0.07 0.02 82 998.8
20260505071535 61 298 0.0 0.0 0.00 0.07 0.02 83 999.2
20260505070035 61 339 0.0 0.0 0.00 0.07 0.02 83 999.0
20260505064541 61 261 0.0 0.0 0.00 0.07 0.02 82 998.7
20260505063031 61 269 0.0 0.0 0.00 0.07 0.02 82 999.3
20260505061546 61 232 0.0 0.0 0.00 0.07 0.02 82 999.2
20260505060033 60 228 0.0 0.0 0.01 0.07 0.02 84 999.3
20260505054551 60 246 0.0 0.0 0.01 0.07 0.02 85 999.6
20260505053032 60 260 0.0 0.0 0.02 0.07 0.02 85 1000.0
20260505051526 61 258 0.0 0.0 0.02 0.07 0.02 83 1000.1
20260505041515 67 220 0.0 0.0 0.00 0.05 0.00 69 999.6
20260505040011 66 259 0.0 0.0 0.00 0.05 0.00 69 999.4
20260505034511 66 242 0.0 0.0 0.00 0.05 0.05 70 999.4
20260505033010 65 218 0.0 0.0 0.00 0.05 0.05 74 999.4
20260505031526 66 234 0.0 0.0 0.00 0.05 0.05 72 999.7
20260505030012 64 236 0.0 0.0 0.00 0.05 0.05 77 1000.0
20260505024518 63 214 0.0 0.0 0.00 0.05 0.05 79 1000.2
20260505023011 64 218 0.0 0.0 0.00 0.05 0.05 78 1000.2
20260505021511 65 223 0.0 0.0 0.00 0.05 0.05 75 1000.1
20260505020017 65 244 0.0 0.0 0.00 0.05 0.05 73 1000.0
20260505014506 65 223 0.0 0.0 0.00 0.05 0.05 73 1000.0
20260505013005 65 229 0.0 0.0 0.00 0.05 0.05 75 999.6
20260505011505 65 232 0.0 0.0 0.05 0.05 0.05 76 999.3
20260505010004 64 234 0.0 0.0 0.05 0.05 0.05 79 999.1
20260505004503 63 240 0.0 0.0 0.05 0.05 0.05 82 999.7
20260505003002 63 229 0.0 0.0 0.05 0.05 0.05 83 999.9
20260505001610 67 292 0.0 0.0 0.00 0.00 0.00 71 1000.0
20260505000117 69 269 0.0 0.0 0.00 0.00 0.00 66 999.4
20260504234559 72 286 0.0 0.0 0.00 0.00 0.00 57 999.2
20260504233101 75 277 0.0 0.0 0.00 0.00 0.00 52 998.5
20260504231557 75 240 0.0 0.0 0.00 0.00 0.00 51 998.5
20260504230107 76 235 0.0 0.0 0.00 0.00 0.00 53 998.5
20260504224558 76 262 0.0 0.0 0.00 0.00 0.00 52 998.4
20260504223058 76 223 0.0 0.0 0.00 0.00 0.00 52 998.8
20260504221601 76 262 0.0 0.0 0.00 0.00 0.00 51 998.9
20260504220049 76 265 0.0 0.0 0.00 0.00 0.00 51 999.2
20260504214547 75 235 0.0 0.0 0.00 0.00 0.00 50 999.4
20260504213046 75 248 0.0 0.0 0.00 0.00 0.00 49 999.7
20260504211546 74 240 0.0 0.0 0.00 0.00 0.00 48 999.8
20260504210044 74 221 0.0 0.0 0.00 0.00 0.00 46 1000.1
20260504204541 75 245 0.0 0.0 0.00 0.00 0.00 44 1000.2
20260504203040 75 242 0.0 0.0 0.00 0.00 0.00 43 1000.2
20260504201539 75 263 0.0 0.0 0.00 0.00 0.00 43 1000.1
20260504200039 75 241 0.0 0.0 0.00 0.00 0.00 41 1000.4
20260504194538 75 242 0.0 0.0 0.00 0.00 0.00 43 1000.6
20260504193035 75 246 0.0 0.0 0.00 0.00 0.00 41 1000.7
20260504191539 75 232 0.0 0.0 0.00 0.00 0.00 42 1000.9
20260504190030 75 248 0.0 0.0 0.00 0.00 0.00 45 1001.1
20260504184529 75 292 0.0 0.0 0.00 0.00 0.00 44 1001.4
20260504183028 74 226 0.0 0.0 0.00 0.00 0.00 50 1001.4
20260504181528 74 252 0.0 0.0 0.00 0.00 0.00 49 1001.5
20260504180021 73 255 0.0 0.0 0.00 0.00 0.00 50 1001.8
20260504174520 73 257 0.0 0.0 0.00 0.00 0.00 52 1002.2
20260504173017 71 263 0.0 0.0 0.00 0.00 0.00 54 1002.4
20260504171512 71 248 0.0 0.0 0.00 0.00 0.00 56 1002.6
20260504160108 68 248 0.0 0.0 0.00 0.00 0.00 57 1003.7